FW2966 Weather Reports


Display with metric or nautical units.
time (UTC)temp
F
wind
direction
speed
MPH
gust
MPH
rain 1hr
in
rain 24hr
in
rain mn
in
humidity
%
barometer
mb
20260505224544 66 159 4.0 13.0 0.00 0.00 0.00 70 1007.7
20260505223058 67 196 3.0 10.0 0.00 0.00 0.00 68 1007.6
20260505221557 67 146 3.0 8.0 0.00 0.00 0.00 68 1007.6
20260505220119 68 184 4.0 10.0 0.00 0.00 0.00 67 1007.5
20260505214604 68 190 4.0 11.0 0.00 0.00 0.00 67 1007.5
20260505213051 67 107 3.0 11.0 0.00 0.00 0.00 67 1007.3
20260505211559 67 190 6.0 16.0 0.00 0.00 0.00 67 1007.2
20260505210051 67 192 6.0 16.0 0.00 0.00 0.00 67 1007.2
20260505204545 68 188 6.0 15.0 0.00 0.00 0.00 66 1007.4
20260505203045 69 188 6.0 18.0 0.00 0.00 0.00 64 1007.5
20260505201602 71 199 6.0 14.0 0.00 0.00 0.00 62 1007.5
20260505200104 72 232 5.0 14.0 0.00 0.00 0.00 61 1007.6
20260505194555 72 158 5.0 11.0 0.00 0.00 0.00 62 1007.9
20260505193046 71 230 5.0 11.0 0.00 0.00 0.00 64 1008.3
20260505191553 71 205 4.0 11.0 0.00 0.00 0.00 63 1008.4
20260505190051 71 175 4.0 12.0 0.00 0.00 0.00 62 1008.8
20260505184550 71 200 6.0 13.0 0.00 0.00 0.00 63 1008.9
20260505183052 71 130 4.0 9.0 0.00 0.00 0.00 66 1009.0
20260505181549 70 141 5.0 10.0 0.00 0.00 0.00 65 1009.0
20260505180050 71 171 4.0 11.0 0.00 0.00 0.00 66 1009.1
20260505174549 73 169 3.0 10.0 0.00 0.00 0.00 65 1009.2
20260505173047 73 197 3.0 8.0 0.00 0.00 0.00 62 1009.2
20260505171543 73 169 5.0 12.0 0.00 0.00 0.00 61 1009.3
20260505170043 72 203 4.0 12.0 0.00 0.00 0.00 60 1009.5
20260505164542 73 133 4.0 10.0 0.00 0.00 0.00 61 1009.7
20260505163044 72 178 3.0 10.0 0.00 0.00 0.00 62 1009.9
20260505161544 71 158 3.0 8.0 0.00 0.00 0.00 64 1010.0
20260505153049 70 211 3.0 7.0 0.00 0.00 0.00 64 1010.2
20260505151549 70 162 3.0 8.0 0.00 0.00 0.00 65 1010.3
20260505124553 61 169 2.0 5.0 0.00 0.00 0.00 79 1010.5
20260505123043 60 198 1.0 3.0 0.00 0.00 0.00 82 1010.5
20260505121542 58 173 1.0 3.0 0.00 0.00 0.00 84 1010.6
20260505120052 57 0 0.0 3.0 0.00 0.00 0.00 87 1010.5
20260505114545 55 167 0.0 3.0 0.00 0.00 0.00 86 1010.5
20260505113041 55 165 2.0 5.0 0.00 0.00 0.00 87 1010.4
20260505111547 55 171 0.0 2.0 0.00 0.00 0.00 89 1010.6
20260505101546 53 0 0.0 2.0 0.00 0.00 0.00 88 1010.2
20260505100044 53 0 0.0 3.0 0.00 0.00 0.00 89 1009.9
20260505094542 53 0 0.0 3.0 0.00 0.00 0.00 89 1009.7
20260505093044 53 0 0.0 0.0 0.00 0.00 0.00 89 1009.8
20260505091539 53 240 1.0 4.0 0.00 0.00 0.00 89 1009.7
20260505090042 53 0 0.0 3.0 0.00 0.00 0.00 89 1009.8
20260505084547 53 0 0.0 3.0 0.00 0.00 0.00 89 1009.9
20260505083045 53 0 0.0 2.0 0.00 0.00 0.00 89 1009.7
20260505081544 53 0 0.0 3.0 0.00 0.00 0.00 88 1009.9
20260505080038 53 277 0.0 4.0 0.00 0.00 0.00 88 1009.8
20260505074546 54 0 0.0 4.0 0.00 0.00 0.00 88 1009.8
20260505073051 54 0 0.0 3.0 0.00 0.00 0.00 87 1009.7
20260505071544 54 163 1.0 5.0 0.00 0.00 0.00 87 1009.7
20260505070051 54 0 0.0 4.0 0.00 0.00 0.00 86 1009.7
20260505064547 54 129 1.0 5.0 0.00 0.00 0.00 86 1009.7
20260505063108 54 143 1.0 4.0 0.00 0.00 0.00 85 1009.8
20260505061545 54 176 0.0 5.0 0.00 0.00 0.00 84 1009.9
20260505060048 55 153 2.0 7.0 0.00 0.00 0.00 83 1009.8
20260505054545 56 180 1.0 5.0 0.00 0.00 0.00 80 1009.9
20260505053054 56 149 0.0 4.0 0.00 0.00 0.00 78 1010.0
20260505051546 57 196 1.0 5.0 0.00 0.00 0.00 76 1010.1
20260505041552 57 0 0.0 3.0 0.00 0.00 0.00 76 1010.4
20260505040052 57 0 0.0 1.0 0.00 0.00 0.00 75 1010.5
20260505034545 57 0 0.0 3.0 0.00 0.00 0.00 75 1010.5
20260505033044 57 0 0.0 7.0 0.00 0.00 0.00 75 1010.4
20260505031555 57 205 1.0 5.0 0.00 0.00 0.00 74 1010.5
20260505030048 57 178 0.0 6.0 0.00 0.00 0.00 74 1010.5
20260505024555 58 217 1.0 3.0 0.00 0.00 0.00 74 1010.4
20260505023048 58 175 0.0 3.0 0.00 0.00 0.00 74 1010.5
20260505021542 58 317 0.0 3.0 0.00 0.00 0.00 74 1010.5
20260505020046 58 187 0.0 4.0 0.00 0.00 0.00 74 1010.6
20260505014600 58 143 0.0 3.0 0.00 0.00 0.00 74 1010.5
20260505013042 58 0 0.0 7.0 0.00 0.00 0.00 74 1010.5
20260505011556 58 238 1.0 4.0 0.00 0.00 0.00 75 1010.3
20260505010042 58 185 1.0 6.0 0.00 0.00 0.00 75 1010.1
20260505004544 58 252 1.0 5.0 0.00 0.00 0.00 75 1009.9
20260505003046 58 187 1.0 7.0 0.00 0.00 0.00 74 1009.7
20260505001545 58 194 1.0 7.0 0.00 0.00 0.00 74 1009.4
20260504234550 59 291 2.0 12.0 0.00 0.00 0.00 70 1009.2
20260504233104 60 182 4.0 12.0 0.00 0.00 0.00 70 1009.0
20260504231543 60 189 4.0 10.0 0.00 0.00 0.00 68 1008.9
20260504230043 60 219 3.0 11.0 0.00 0.00 0.00 67 1008.9